Time,TemperatureF,DewpointF,PressureIn,WindDirection,WindDirectionDegrees,WindSpeedMPH,WindSpeedGustMPH,Humidity,HourlyPrecipIn,Conditions,Clouds,dailyrainin,SoftwareType,DateUTC
2013-07-18 00:05:00,53.2,50.0,30.06,NW,308,0.0,0.0,88,0.00,,,0.00,weatherlink.com 1.10,2013-07-18 07:05:00,
2013-07-18 00:20:00,52.9,50.0,30.06,NW,308,0.0,0.0,89,0.00,,,0.00,weatherlink.com 1.10,2013-07-18 07:20:00,
2013-07-18 00:36:00,52.6,50.0,30.06,NW,308,0.0,0.0,89,0.00,,,0.00,weatherlink.com 1.10,2013-07-18 07:36:00,
2013-07-18 00:51:00,52.3,50.0,30.06,NW,308,0.0,0.0,90,0.00,,,0.00,weatherlink.com 1.10,2013-07-18 07:51:00,
2013-07-18 01:06:00,52.0,50.0,30.05,NW,308,0.0,0.0,91,0.00,,,0.00,weatherlink.com 1.10,2013-07-18 08:06:00,
2013-07-18 01:21:00,51.8,49.0,30.05,NW,308,0.0,0.0,91,0.00,,,0.00,weatherlink.com 1.10,2013-07-18 08:21:00,
2013-07-18 01:36:00,51.8,49.0,30.04,NW,308,0.0,0.0,91,0.00,,,0.00,weatherlink.com 1.10,2013-07-18 08:36:00,
2013-07-18 01:51:00,51.5,49.0,30.04,NW,308,0.0,0.0,92,0.00,,,0.00,weatherlink.com 1.10,2013-07-18 08:51:00,
2013-07-18 02:06:00,51.2,49.0,30.04,NW,308,0.0,0.0,92,0.00,,,0.00,weatherlink.com 1.10,2013-07-18 09:06:00,
2013-07-18 02:21:00,51.0,49.0,30.04,NW,308,0.0,0.0,92,0.00,,,0.00,weatherlink.com 1.10,2013-07-18 09:21:00,
2013-07-18 02:36:00,50.7,49.0,30.04,NW,308,0.0,0.0,93,0.00,,,0.00,weatherlink.com 1.10,2013-07-18 09:36:00,
2013-07-18 02:51:00,50.7,49.0,30.04,NW,308,0.0,0.0,93,0.00,,,0.00,weatherlink.com 1.10,2013-07-18 09:51:00,
2013-07-18 03:06:00,50.5,49.0,30.04,NW,308,0.0,0.0,93,0.00,,,0.00,weatherlink.com 1.10,2013-07-18 10:06:00,
2013-07-18 03:21:00,50.7,49.0,30.03,NW,308,0.0,0.0,93,0.00,,,0.00,weatherlink.com 1.10,2013-07-18 10:21:00,
2013-07-18 03:36:00,50.5,49.0,30.03,NW,308,0.0,0.0,93,0.00,,,0.00,weatherlink.com 1.10,2013-07-18 10:36:00,
2013-07-18 03:51:00,50.2,49.0,30.03,NW,308,0.0,0.0,94,0.00,,,0.00,weatherlink.com 1.10,2013-07-18 10:51:00,
2013-07-18 04:06:00,50.0,48.0,30.03,NW,308,0.0,0.0,94,0.00,,,0.00,weatherlink.com 1.10,2013-07-18 11:06:00,
2013-07-18 04:21:00,49.7,48.0,30.03,NW,308,0.0,0.0,94,0.00,,,0.00,weatherlink.com 1.10,2013-07-18 11:21:00,
2013-07-18 04:36:00,49.2,48.0,30.03,NW,308,0.0,0.0,94,0.00,,,0.00,weatherlink.com 1.10,2013-07-18 11:36:00,
2013-07-18 04:51:00,48.7,47.0,30.03,NW,308,0.0,0.0,94,0.00,,,0.00,weatherlink.com 1.10,2013-07-18 11:51:00,
2013-07-18 05:06:00,48.1,47.0,30.03,NW,308,0.0,0.0,94,0.00,,,0.00,weatherlink.com 1.10,2013-07-18 12:06:00,
2013-07-18 05:21:00,47.6,46.0,30.02,NW,308,0.0,0.0,94,0.00,,,0.00,weatherlink.com 1.10,2013-07-18 12:21:00,
2013-07-18 05:36:00,47.1,46.0,30.03,NW,308,0.0,0.0,94,0.00,,,0.00,weatherlink.com 1.10,2013-07-18 12:36:00,
2013-07-18 05:51:00,46.9,45.0,30.04,NW,308,0.0,0.0,94,0.00,,,0.00,weatherlink.com 1.10,2013-07-18 12:51:00,
2013-07-18 06:06:00,46.7,45.0,30.04,NW,308,0.0,0.0,94,0.00,,,0.00,weatherlink.com 1.10,2013-07-18 13:06:00,
2013-07-18 06:21:00,47.0,45.0,30.03,NW,308,0.0,0.0,94,0.00,,,0.00,weatherlink.com 1.10,2013-07-18 13:21:00,
2013-07-18 06:36:00,47.1,46.0,30.04,NW,308,0.0,0.0,94,0.00,,,0.00,weatherlink.com 1.10,2013-07-18 13:36:00,
2013-07-18 06:51:00,48.3,47.0,30.04,NW,308,0.0,0.0,95,0.00,,,0.00,weatherlink.com 1.10,2013-07-18 13:51:00,
2013-07-18 07:06:00,51.2,50.0,30.04,NW,308,0.0,0.0,95,0.00,,,0.00,weatherlink.com 1.10,2013-07-18 14:06:00,
2013-07-18 07:21:00,53.4,52.0,30.04,NW,308,0.0,0.0,95,0.00,,,0.00,weatherlink.com 1.10,2013-07-18 14:21:00,
2013-07-18 07:36:00,55.4,54.0,30.04,NNW,338,0.0,1.0,94,0.00,,,0.00,weatherlink.com 1.10,2013-07-18 14:36:00,
2013-07-18 07:51:00,57.7,55.0,30.04,NNW,338,1.0,1.0,91,0.00,,,0.00,weatherlink.com 1.10,2013-07-18 14:51:00,
2013-07-18 08:06:00,60.8,56.0,30.04,NNW,338,0.0,1.0,85,0.00,,,0.00,weatherlink.com 1.10,2013-07-18 15:06:00,
2013-07-18 08:21:00,63.0,57.0,30.05,NNW,338,0.0,1.0,81,0.00,,,0.00,weatherlink.com 1.10,2013-07-18 15:21:00,
2013-07-18 08:37:00,65.0,57.0,30.05,NNE,24,0.0,1.0,75,0.00,,,0.00,weatherlink.com 1.10,2013-07-18 15:37:00,
2013-07-18 08:52:00,67.9,59.0,30.04,NNE,29,0.0,2.0,72,0.00,,,0.00,weatherlink.com 1.10,2013-07-18 15:52:00,
2013-07-18 09:07:00,69.8,59.0,30.05,NNE,32,0.0,1.0,68,0.00,,,0.00,weatherlink.com 1.10,2013-07-18 16:07:00,
2013-07-18 09:22:00,71.3,58.0,30.04,NE,39,0.0,2.0,64,0.00,,,0.00,weatherlink.com 1.10,2013-07-18 16:22:00,
2013-07-18 09:37:00,72.2,59.0,30.04,NE,40,0.0,2.0,63,0.00,,,0.00,weatherlink.com 1.10,2013-07-18 16:37:00,
2013-07-18 09:52:00,73.1,58.0,30.03,East,82,0.0,2.0,59,0.00,,,0.00,weatherlink.com 1.10,2013-07-18 16:52:00,
2013-07-18 10:07:00,75.4,59.0,30.03,East,89,3.0,3.0,58,0.00,,,0.00,weatherlink.com 1.10,2013-07-18 17:07:00,
2013-07-18 10:22:00,75.3,58.0,30.03,ENE,78,0.0,4.0,55,0.00,,,0.00,weatherlink.com 1.10,2013-07-18 17:22:00,
2013-07-18 10:37:00,77.4,59.0,30.03,ENE,70,3.0,3.0,53,0.00,,,0.00,weatherlink.com 1.10,2013-07-18 17:37:00,
2013-07-18 10:52:00,76.4,59.0,30.03,SSW,206,4.0,7.0,55,0.00,,,0.00,weatherlink.com 1.10,2013-07-18 17:52:00,
2013-07-18 11:08:00,79.0,59.0,30.03,ENE,73,0.0,3.0,51,0.00,,,0.00,weatherlink.com 1.10,2013-07-18 18:08:00,
2013-07-18 11:22:00,79.3,60.0,30.03,SE,133,1.0,5.0,51,0.00,,,0.00,weatherlink.com 1.10,2013-07-18 18:22:00,
2013-07-18 11:37:00,80.3,60.0,30.03,South,188,1.0,7.0,50,0.00,,,0.00,weatherlink.com 1.10,2013-07-18 18:37:00,
2013-07-18 11:52:00,79.8,59.0,30.03,SW,214,0.0,7.0,50,0.00,,,0.00,weatherlink.com 1.10,2013-07-18 18:52:00,
2013-07-18 12:07:00,79.7,60.0,30.02,SE,135,0.0,5.0,51,0.00,,,0.00,weatherlink.com 1.10,2013-07-18 19:07:00,
2013-07-18 12:22:00,81.0,60.0,30.02,WSW,242,1.0,7.0,49,0.00,,,0.00,weatherlink.com 1.10,2013-07-18 19:22:00,
2013-07-18 12:37:00,81.8,61.0,30.02,NNW,338,4.0,4.0,49,0.00,,,0.00,weatherlink.com 1.10,2013-07-18 19:37:00,
2013-07-18 12:52:00,83.0,59.0,30.02,SW,236,2.0,6.0,44,0.00,,,0.00,weatherlink.com 1.10,2013-07-18 19:52:00,
2013-07-18 13:07:00,81.9,59.0,30.02,East,93,3.0,7.0,46,0.00,,,0.00,weatherlink.com 1.10,2013-07-18 20:07:00,
2013-07-18 13:22:00,82.5,58.0,30.01,West,272,2.0,6.0,43,0.00,,,0.00,weatherlink.com 1.10,2013-07-18 20:22:00,
2013-07-18 13:37:00,84.6,58.0,30.01,WNW,302,2.0,5.0,41,0.00,,,0.00,weatherlink.com 1.10,2013-07-18 20:37:00,
2013-07-18 13:52:00,84.4,58.0,30.00,ENE,78,3.0,8.0,41,0.00,,,0.00,weatherlink.com 1.10,2013-07-18 20:52:00,
2013-07-18 14:07:00,84.5,59.0,30.00,ENE,62,1.0,7.0,42,0.00,,,0.00,weatherlink.com 1.10,2013-07-18 21:07:00,
2013-07-18 14:22:00,84.5,58.0,30.00,NNW,327,3.0,6.0,40,0.00,,,0.00,weatherlink.com 1.10,2013-07-18 21:22:00,
2013-07-18 14:37:00,83.9,57.0,29.99,NNW,336,3.0,8.0,40,0.00,,,0.00,weatherlink.com 1.10,2013-07-18 21:37:00,
2013-07-18 14:52:00,85.8,59.0,29.99,NE,38,0.0,5.0,40,0.00,,,0.00,weatherlink.com 1.10,2013-07-18 21:52:00,
2013-07-18 15:07:00,83.9,58.0,29.99,ENE,60,3.0,8.0,41,0.00,,,0.00,weatherlink.com 1.10,2013-07-18 22:07:00,
2013-07-18 15:23:00,85.8,57.0,29.98,ESE,107,1.0,8.0,38,0.00,,,0.00,weatherlink.com 1.10,2013-07-18 22:23:00,
2013-07-18 15:38:00,86.5,57.0,29.98,East,80,0.0,4.0,37,0.00,,,0.00,weatherlink.com 1.10,2013-07-18 22:38:00,
2013-07-18 15:53:00,85.9,57.0,29.98,NE,56,1.0,8.0,37,0.00,,,0.00,weatherlink.com 1.10,2013-07-18 22:53:00,
2013-07-18 16:09:00,85.4,57.0,29.97,WNW,288,2.0,7.0,38,0.00,,,0.00,weatherlink.com 1.10,2013-07-18 23:09:00,
2013-07-18 16:23:00,85.4,56.0,29.97,East,92,5.0,5.0,37,0.00,,,0.00,weatherlink.com 1.10,2013-07-18 23:23:00,
2013-07-18 16:38:00,84.5,55.0,29.96,East,82,2.0,7.0,36,0.00,,,0.00,weatherlink.com 1.10,2013-07-18 23:38:00,
2013-07-18 16:53:00,84.3,54.0,29.96,NW,306,0.0,7.0,35,0.00,,,0.00,weatherlink.com 1.10,2013-07-18 23:53:00,
2013-07-18 17:08:00,83.0,55.0,29.96,NNE,25,6.0,7.0,38,0.00,,,0.00,weatherlink.com 1.10,2013-07-19 00:08:00,
2013-07-18 17:23:00,82.4,54.0,29.95,East,93,0.0,5.0,37,0.00,,,0.00,weatherlink.com 1.10,2013-07-19 00:23:00,
2013-07-18 17:38:00,81.7,54.0,29.95,North,11,1.0,5.0,38,0.00,,,0.00,weatherlink.com 1.10,2013-07-19 00:38:00,
2013-07-18 17:53:00,79.8,52.0,29.94,WSW,240,0.0,6.0,38,0.00,,,0.00,weatherlink.com 1.10,2013-07-19 00:53:00,
2013-07-18 18:08:00,78.3,52.0,29.94,NE,51,0.0,5.0,40,0.00,,,0.00,weatherlink.com 1.10,2013-07-19 01:08:00,
2013-07-18 18:23:00,77.5,52.0,29.94,WSW,248,0.0,2.0,41,0.00,,,0.00,weatherlink.com 1.10,2013-07-19 01:23:00,
2013-07-18 18:38:00,76.3,51.0,29.93,North,360,0.0,1.0,42,0.00,,,0.00,weatherlink.com 1.10,2013-07-19 01:38:00,
2013-07-18 18:53:00,75.2,52.0,29.93,NW,317,0.0,3.0,45,0.00,,,0.00,weatherlink.com 1.10,2013-07-19 01:53:00,
2013-07-18 19:08:00,74.0,53.0,29.93,NW,317,1.0,2.0,48,0.00,,,0.00,weatherlink.com 1.10,2013-07-19 02:08:00,
2013-07-18 19:23:00,73.3,53.0,29.93,NW,317,0.0,2.0,49,0.00,,,0.00,weatherlink.com 1.10,2013-07-19 02:23:00,
2013-07-18 19:38:00,72.6,54.0,29.93,NW,317,0.0,1.0,52,0.00,,,0.00,weatherlink.com 1.10,2013-07-19 02:38:00,
2013-07-18 19:53:00,71.7,55.0,29.93,NW,317,0.0,0.0,56,0.00,,,0.00,weatherlink.com 1.10,2013-07-19 02:53:00,
2013-07-18 20:08:00,70.6,55.0,29.93,NW,317,0.0,1.0,58,0.00,,,0.00,weatherlink.com 1.10,2013-07-19 03:08:00,
2013-07-18 20:23:00,70.0,54.0,29.93,NW,317,0.0,0.0,58,0.00,,,0.00,weatherlink.com 1.10,2013-07-19 03:23:00,
2013-07-18 20:38:00,68.9,54.0,29.93,NW,317,0.0,0.0,59,0.00,,,0.00,weatherlink.com 1.10,2013-07-19 03:38:00,
2013-07-18 20:53:00,67.8,54.0,29.93,NW,317,0.0,0.0,61,0.00,,,0.00,weatherlink.com 1.10,2013-07-19 03:53:00,
2013-07-18 21:08:00,66.7,53.0,29.93,NW,317,0.0,0.0,62,0.00,,,0.00,weatherlink.com 1.10,2013-07-19 04:08:00,
2013-07-18 21:23:00,65.7,53.0,29.93,NW,317,0.0,0.0,64,0.00,,,0.00,weatherlink.com 1.10,2013-07-19 04:23:00,
2013-07-18 21:38:00,64.8,53.0,29.94,NW,317,0.0,0.0,66,0.00,,,0.00,weatherlink.com 1.10,2013-07-19 04:38:00,
2013-07-18 21:53:00,63.8,53.0,29.94,NW,317,0.0,0.0,67,0.00,,,0.00,weatherlink.com 1.10,2013-07-19 04:53:00,
2013-07-18 22:08:00,63.0,53.0,29.94,NW,317,0.0,0.0,69,0.00,,,0.00,weatherlink.com 1.10,2013-07-19 05:08:00,
2013-07-18 22:23:00,62.1,53.0,29.94,NW,317,0.0,0.0,71,0.00,,,0.00,weatherlink.com 1.10,2013-07-19 05:23:00,
2013-07-18 22:38:00,61.2,52.0,29.94,NW,317,0.0,0.0,73,0.00,,,0.00,weatherlink.com 1.10,2013-07-19 05:38:00,
2013-07-18 22:53:00,60.5,53.0,29.94,NW,317,0.0,0.0,75,0.00,,,0.00,weatherlink.com 1.10,2013-07-19 05:53:00,
2013-07-18 23:08:00,60.2,53.0,29.94,NW,317,0.0,0.0,77,0.00,,,0.00,weatherlink.com 1.10,2013-07-19 06:08:00,
2013-07-18 23:23:00,59.7,53.0,29.94,NW,317,0.0,0.0,78,0.00,,,0.00,weatherlink.com 1.10,2013-07-19 06:23:00,
2013-07-18 23:38:00,59.1,53.0,29.93,NW,317,0.0,0.0,79,0.00,,,0.00,weatherlink.com 1.10,2013-07-19 06:38:00,
2013-07-18 23:53:00,58.6,53.0,29.93,NW,317,0.0,0.0,81,0.00,,,0.00,weatherlink.com 1.10,2013-07-19 06:53:00,